User: anonymous   Login
Location: Spruce Knob
(38.6995°N, 79.5330°W)
Time: 21:17:44
(UTC-05:00)
Language:

deb Explorer IX - Orbit

View from above orbital plane
View from above orbital plane
View from above satellite
View from above satellite

Ground track
Ground track

The orbit data is extracted from the following two-line orbital elements,

1 00085U 61004C   22022.03932870  .00005263  00000-0  11190-2 0  9994
2 00085  38.7640 279.0008 0374048  75.7961 288.4033 14.23671001 14187
Epoch (UTC): 22 January 2022 00:56:38
Eccentricity: 0.0374048
inclination: 38.7640°
perigee height: 544 km
apogee height: 1082 km
right ascension of ascending node: 279.0008°
argument of perigee: 75.7961°
revolutions per day: 14.23671001
mean anomaly at epoch: 288.4033°
orbit number at epoch: 1418

The dashed part of the orbit path shows where the satellite is in the earth's shadow,  

DLR